Weather History for KENV - January, 2014

Change the Weather History Date:

Saturday, January 11, 2014

  Actual Average Record
Temperature  
Mean Temperature 37 °F -  
Max Temperature 48 °F 35 °F 62 °F (2000)
Min Temperature 26 °F 18 °F -7 °F (1993)
Degree Days  
Heating Degree Days 28    
Moisture  
Dew Point 25 °F    
Average Humidity 69    
Maximum Humidity 80    
Minimum Humidity 43    
Precipitation  
Precipitation 0.00 in - - ()
Sea Level Pressure  
Sea Level Pressure 29.99 in    
Wind  
Wind Speed 6 mph (NE)    
Max Wind Speed 23 mph    
Max Gust Speed 39 mph    
Visibility 10 miles    
Events      
Averages and records for this station are not official NWS values.
T = Trace of Precipitation, MM = Missing Value Source: NWS Daily Summary

Daily Weather History Graph

Daily Weather History Graph

Search for Another Location

Airport or City:

Trip Planner

Search our weather history database for the weather conditions in past years. The results will help you decide how hot, cold, wet, or windy it might be!

Date:

Astronomy

Jan. 11, 2014 Rise Set
Actual Time 7:59 AM MST 5:29 PM MST
Civil Twilight 7:29 AM MST 5:59 PM MST
Nautical Twilight 6:55 AM MST 6:33 PM MST
Astronomical Twilight 6:22 AM MST 7:06 PM MST
Moon 2:16 PM MST (1/11) 4:07 AM MST (1/11)
Length of Visible Light 10h 30m
Length of Day
9h 29m
Waxing Gibbous, 83% of the Moon is Illuminated
Jan 11
Waxing Gibbous
Jan 15
Full
Jan 23
Last Quarter
Jan 30
New
Feb 6
First Quarter

Hourly Weather History & Observations

Time (MST) Temp. Windchill Dew Point Humidity Pressure Visibility Wind Dir Wind Speed Gust Speed Precip Events Conditions
12:15 AM 33.8 °F - 24.8 °F 70% 30.17 in 10.0 mi Calm Calm - N/A   Clear
12:35 AM 33.8 °F 30.8 °F 24.8 °F 70% 30.17 in 10.0 mi NNW 3.5 mph - N/A   Clear
12:55 AM 39.2 °F 37.0 °F 26.6 °F 61% 30.16 in 10.0 mi West 3.5 mph - N/A   Clear
1:15 AM 30.2 °F 23.4 °F 23.0 °F 75% 30.16 in 10.0 mi East 6.9 mph - N/A   Clear
1:35 AM 32.0 °F - 23.0 °F 69% 30.16 in 10.0 mi Calm Calm - N/A   Clear
1:55 AM 33.8 °F - 24.8 °F 70% 30.15 in 10.0 mi Calm Calm - N/A   Clear
2:15 AM 30.2 °F - 23.0 °F 75% 30.15 in 10.0 mi Calm Calm - N/A   Clear
2:35 AM 30.2 °F 22.6 °F 23.0 °F 75% 30.15 in 10.0 mi NNE 8.1 mph - N/A   Clear
2:55 AM 32.0 °F 28.7 °F 24.8 °F 75% 30.15 in 10.0 mi NNE 3.5 mph - N/A   Clear
3:15 AM 30.2 °F 21.3 °F 21.2 °F 69% 30.15 in 10.0 mi East 10.4 mph - N/A   Partly Cloudy
3:35 AM 30.2 °F 25.4 °F 21.2 °F 69% 30.15 in 10.0 mi NE 4.6 mph - N/A   Partly Cloudy
3:55 AM 28.4 °F 20.4 °F 21.2 °F 74% 30.15 in 10.0 mi NE 8.1 mph - N/A   Clear
4:15 AM 28.4 °F 20.4 °F 23.0 °F 80% 30.14 in 10.0 mi NE 8.1 mph - N/A   Clear
4:35 AM 28.4 °F 21.2 °F 21.2 °F 74% 30.14 in 10.0 mi ENE 6.9 mph - N/A   Scattered Clouds
4:55 AM 26.6 °F 17.5 °F 21.2 °F 80% 30.14 in 10.0 mi NE 9.2 mph - N/A   Partly Cloudy
5:15 AM 28.4 °F 19.1 °F 23.0 °F 80% 30.13 in 10.0 mi NE 10.4 mph - N/A   Clear
5:35 AM 28.4 °F 24.6 °F 21.2 °F 74% 30.12 in 10.0 mi West 3.5 mph - N/A   Clear
5:55 AM 28.4 °F - 21.2 °F 74% 30.12 in 10.0 mi Calm Calm - N/A   Clear
6:15 AM 26.6 °F 22.6 °F 21.2 °F 80% 30.12 in 10.0 mi NNW 3.5 mph - N/A   Clear
6:35 AM 26.6 °F 19.1 °F 21.2 °F 80% 30.12 in 10.0 mi North 6.9 mph - N/A   Clear
6:55 AM 26.6 °F 19.1 °F 21.2 °F 80% 30.11 in 10.0 mi NNE 6.9 mph - N/A   Clear
7:15 AM 28.4 °F - 21.2 °F 74% 30.11 in 10.0 mi Calm Calm - N/A   Clear
7:35 AM 26.6 °F 19.1 °F 21.2 °F 80% 30.10 in 10.0 mi East 6.9 mph - N/A   Clear
7:55 AM 26.6 °F 20.0 °F 21.2 °F 80% 30.10 in 10.0 mi NE 5.8 mph - N/A   Clear
8:15 AM 28.4 °F 20.4 °F 21.2 °F 74% 30.09 in 10.0 mi NE 8.1 mph - N/A   Clear
8:35 AM 28.4 °F 21.2 °F 21.2 °F 74% 30.09 in 10.0 mi NNE 6.9 mph - N/A   Clear
8:55 AM 26.6 °F 17.5 °F 21.2 °F 80% 30.09 in 10.0 mi ENE 9.2 mph - N/A   Clear
9:15 AM 28.4 °F 23.3 °F 21.2 °F 74% 30.11 in 10.0 mi ENE 4.6 mph - N/A   Clear
9:35 AM 28.4 °F 20.4 °F 23.0 °F 80% 30.10 in 10.0 mi NE 8.1 mph - N/A   Clear
9:55 AM 30.2 °F 25.4 °F 23.0 °F 75% 30.09 in 10.0 mi East 4.6 mph - N/A   Clear
10:15 AM 30.2 °F 23.4 °F 23.0 °F 75% 30.08 in 10.0 mi NE 6.9 mph - N/A   Clear
10:35 AM 30.2 °F 25.4 °F 24.8 °F 80% 30.08 in 10.0 mi NE 4.6 mph - N/A   Clear
10:55 AM 32.0 °F 27.5 °F 24.8 °F 75% 30.07 in 10.0 mi NW 4.6 mph - N/A   Clear
11:15 AM 30.2 °F 26.7 °F 24.8 °F 80% 30.07 in 10.0 mi West 3.5 mph - N/A   Clear
11:35 AM 32.0 °F 28.7 °F 24.8 °F 75% 30.05 in 10.0 mi NNE 3.5 mph - N/A   Clear
11:55 AM 33.8 °F 27.0 °F 26.6 °F 75% 30.03 in 10.0 mi ENE 8.1 mph - N/A   Clear
12:15 PM 35.6 °F 29.9 °F 26.6 °F 70% 30.01 in 10.0 mi ENE 6.9 mph - N/A   Clear
12:35 PM 35.6 °F 28.6 °F 26.6 °F 70% 29.98 in 10.0 mi ENE 9.2 mph - N/A   Clear
12:55 PM 37.4 °F 30.3 °F 28.4 °F 70% 29.96 in 10.0 mi ENE 10.4 mph - N/A   Clear
1:15 PM 37.4 °F 29.8 °F 28.4 °F 70% 29.94 in 10.0 mi ENE 11.5 mph - N/A   Clear
1:35 PM 37.4 °F 30.3 °F 28.4 °F 70% 29.93 in 10.0 mi NE 10.4 mph - N/A   Clear
1:55 PM 39.2 °F 32.5 °F 28.4 °F 65% 29.92 in 10.0 mi ENE 10.4 mph - N/A   Clear
2:15 PM 39.2 °F 31.6 °F 28.4 °F 65% 29.90 in 10.0 mi ENE 12.7 mph - N/A   Clear
2:35 PM 39.2 °F 33.0 °F 28.4 °F 65% 29.90 in 10.0 mi ENE 9.2 mph - N/A   Clear
2:55 PM 39.2 °F 34.2 °F 28.4 °F 65% 29.89 in 10.0 mi East 6.9 mph - N/A   Clear
3:15 PM 41.0 °F 35.2 °F 30.2 °F 65% 29.88 in 10.0 mi ENE 9.2 mph - N/A   Clear
3:35 PM 41.0 °F 34.7 °F 28.4 °F 61% 29.87 in 10.0 mi East 10.4 mph - N/A   Clear
3:55 PM 41.0 °F 36.4 °F 28.4 °F 61% 29.87 in 10.0 mi ENE 6.9 mph - N/A   Mostly Cloudy
4:15 PM 39.2 °F 34.2 °F 28.4 °F 65% 29.87 in 10.0 mi ENE 6.9 mph - N/A   Mostly Cloudy
4:35 PM 39.2 °F 35.9 °F 28.4 °F 65% 29.88 in 10.0 mi NE 4.6 mph - N/A   Mostly Cloudy
4:55 PM 39.2 °F 35.9 °F 30.2 °F 70% 29.87 in 10.0 mi East 4.6 mph - N/A   Partly Cloudy
5:15 PM 39.2 °F 35.9 °F 28.4 °F 65% 29.86 in 10.0 mi East 4.6 mph - N/A   Scattered Clouds
5:35 PM 37.4 °F 32.1 °F 28.4 °F 70% 29.84 in 10.0 mi SE 6.9 mph - N/A   Partly Cloudy
5:55 PM 35.6 °F 30.7 °F 26.6 °F 70% 29.83 in 10.0 mi ENE 5.8 mph - N/A   Clear
6:15 PM 35.6 °F 28.6 °F 26.6 °F 70% 29.82 in 10.0 mi NE 9.2 mph - N/A   Clear
6:35 PM 35.6 °F 29.2 °F 26.6 °F 70% 29.81 in 10.0 mi ENE 8.1 mph - N/A   Clear
6:55 PM 35.6 °F 29.2 °F 26.6 °F 70% 29.81 in 10.0 mi NNE 8.1 mph - N/A   Partly Cloudy
7:15 PM 33.8 °F 28.6 °F 26.6 °F 75% 29.80 in 10.0 mi East 5.8 mph - N/A   Clear
7:35 PM 33.8 °F 27.0 °F 26.6 °F 75% 29.81 in 10.0 mi NNE 8.1 mph - N/A   Clear
7:55 PM 35.6 °F 29.2 °F 26.6 °F 70% 29.80 in 10.0 mi ENE 8.1 mph - N/A   Clear
8:15 PM 35.6 °F 29.2 °F 28.4 °F 75% 29.79 in 10.0 mi ENE 8.1 mph - N/A   Clear
8:35 PM 48.2 °F - 32.0 °F 54% 29.79 in 10.0 mi WSW 23.0 mph 39.1 mph N/A   Clear
8:55 PM 46.4 °F 40.4 °F 26.6 °F 46% 29.80 in 10.0 mi West 13.8 mph - N/A   Clear
9:15 PM 44.6 °F 38.8 °F 26.6 °F 49% 29.80 in 10.0 mi West 11.5 mph - N/A   Scattered Clouds
9:35 PM 44.6 °F 39.7 °F 26.6 °F 49% 29.81 in 10.0 mi West 9.2 mph - N/A   Mostly Cloudy
9:55 PM 46.4 °F 40.4 °F 26.6 °F 46% 29.82 in 10.0 mi West 13.8 mph 21.9 mph N/A   Mostly Cloudy
10:15 PM 48.2 °F - 26.6 °F 43% 29.81 in 10.0 mi West 18.4 mph - N/A   Partly Cloudy
10:35 PM 46.4 °F 39.2 °F 24.8 °F 43% 29.82 in 10.0 mi West 18.4 mph 25.3 mph N/A   Partly Cloudy
10:55 PM 46.4 °F 38.3 °F 26.6 °F 46% 29.84 in 10.0 mi NNW 23.0 mph 31.1 mph N/A   Mostly Cloudy
11:15 PM 42.8 °F 34.0 °F 30.2 °F 61% 29.86 in 10.0 mi NW 20.7 mph 29.9 mph N/A   Mostly Cloudy
11:35 PM 39.2 °F 30.5 °F 32.0 °F 75% 29.89 in 10.0 mi NW 16.1 mph - N/A   Mostly Cloudy
11:55 PM 39.2 °F 29.6 °F 30.2 °F 70% 29.90 in 10.0 mi WNW 19.6 mph 29.9 mph N/A   Overcast